Anchorage, AK

3:27 AM AKDT on August 28, 2016 (GMT -0800)
Merrill

Weather History for PAMR - August, 2013

Change the Weather History Date:

Saturday, August 17, 2013

  Actual Average Record
Temperature  
Mean Temperature 60 °F -  
Max Temperature 68 °F 63 °F 82 °F (2004)
Min Temperature 53 °F 49 °F 46 °F (1993)
Degree Days  
Heating Degree Days 6    
Growing Degree Days 10 (Base 50)    
Moisture  
Dew Point 56 °F    
Average Humidity 92    
Maximum Humidity 100    
Minimum Humidity 60    
Precipitation  
Precipitation 0.15 in - - ()
Sea Level Pressure  
Sea Level Pressure 29.60 in    
Wind  
Wind Speed 2 mph (North)    
Max Wind Speed 7 mph    
Max Gust Speed -    
Visibility 10 miles    
Events Rain    
Averages and records for this station are not official NWS values.
T = Trace of Precipitation, MM = Missing Value Source: NWS Daily Summary

Daily Weather History Graph

Daily Weather History Graph

Search for Another Location

Airport or City:

Trip Planner

Search our weather history database for the weather conditions in past years. The results will help you decide how hot, cold, wet, or windy it might be!

Date:

Astronomy

Aug. 17, 2013 Rise Set
Actual Time 6:14 AM AKDT 9:50 PM AKDT
Civil Twilight 5:20 AM AKDT 10:43 PM AKDT
Nautical Twilight 4:00 AM AKDT 12:02 AM AKDT
Astronomical Twilight 2:35 AM AKDT 1:30 AM AKDT
Moon 7:43 PM AKDT (8/17) 1:52 AM AKDT (8/17)
Length of Visible Light 17h 22m
Length of Day
15h 36m
Waxing Gibbous, 85% of the Moon is Illuminated
Aug 17
Waxing Gibbous
Aug 20
Full
Aug 28
Last Quarter
Sep 5
New
Sep 12
First Quarter

Hourly Weather History & Observations

Time (AKDT) Temp. Dew Point Humidity Pressure Visibility Wind Dir Wind Speed Gust Speed Precip Events Conditions
12:53 AM 57.9 °F 55.9 °F 93% 29.65 in 10.0 mi Calm Calm - 0.00 in Rain Light Rain
1:53 AM 57.0 °F 55.0 °F 93% 29.65 in 10.0 mi NNW 3.5 mph - 0.00 in Rain Light Rain
2:53 AM 55.9 °F 55.9 °F 100% 29.65 in 10.0 mi Calm Calm - 0.01 in Rain Light Rain
3:32 AM 55.4 °F 55.4 °F 100% 29.63 in 10.0 mi NNE 3.5 mph - 0.00 in Rain Light Rain
3:36 AM 55.4 °F 55.4 °F 100% 29.63 in 10.0 mi North 3.5 mph - 0.00 in Rain Light Rain
3:53 AM 55.9 °F 55.9 °F 100% 29.63 in 10.0 mi NNE 4.6 mph - 0.00 in Rain Light Rain
4:09 AM 55.4 °F 55.4 °F 100% 29.63 in 10.0 mi NNE 3.5 mph - 0.00 in Rain Light Rain
4:41 AM 55.4 °F 55.4 °F 100% 29.62 in 10.0 mi Calm Calm - 0.01 in Rain Light Rain
4:50 AM 55.4 °F 55.4 °F 100% 29.62 in 10.0 mi Calm Calm - 0.01 in Rain Light Rain
4:53 AM 55.9 °F 55.9 °F 100% 29.62 in 10.0 mi Calm Calm - 0.01 in Rain Light Rain
5:53 AM 55.0 °F 55.0 °F 100% 29.62 in 10.0 mi Calm Calm - 0.00 in   Overcast
6:27 AM 55.4 °F 55.4 °F 100% 29.62 in 10.0 mi Calm Calm - 0.00 in Rain Light Rain
6:53 AM 55.0 °F 55.0 °F 100% 29.62 in 7.0 mi NNE 3.5 mph - 0.00 in   Overcast
7:34 AM 53.6 °F 53.6 °F 100% 29.61 in 10.0 mi North 4.6 mph - N/A   Overcast
7:53 AM 55.0 °F 53.1 °F 93% 29.62 in 10.0 mi North 4.6 mph - 0.00 in Rain Light Rain
8:53 AM 55.0 °F 55.0 °F 100% 29.62 in 10.0 mi NE 3.5 mph - 0.01 in Rain Light Rain
9:53 AM 55.0 °F 55.0 °F 100% 29.62 in 10.0 mi NNE 3.5 mph - 0.02 in Rain Light Rain
9:57 AM 55.4 °F 55.4 °F 100% 29.61 in 10.0 mi NNE 3.5 mph - 0.00 in Rain Light Rain
10:53 AM 55.9 °F 55.9 °F 100% 29.62 in 10.0 mi Calm Calm - 0.01 in Rain Light Rain
11:53 AM 57.9 °F 57.9 °F 100% 29.61 in 10.0 mi North 5.8 mph - 0.00 in   Overcast
12:31 PM 60.8 °F 59.0 °F 94% 29.60 in 10.0 mi NNW 4.6 mph - N/A   Overcast
12:53 PM 62.1 °F 57.9 °F 86% 29.60 in 10.0 mi Calm Calm - N/A   Overcast
1:53 PM 61.0 °F 59.0 °F 93% 29.60 in 10.0 mi North 4.6 mph - N/A   Mostly Cloudy
2:53 PM 63.0 °F 53.1 °F 70% 29.58 in 10.0 mi Calm Calm - N/A   Mostly Cloudy
3:53 PM 64.0 °F 54.0 °F 70% 29.57 in 10.0 mi Calm Calm - N/A   Mostly Cloudy
4:53 PM 66.0 °F 54.0 °F 65% 29.55 in 10.0 mi Calm Calm - N/A   Mostly Cloudy
5:53 PM 66.9 °F 54.0 °F 63% 29.54 in 10.0 mi West 6.9 mph - N/A   Overcast
6:53 PM 66.9 °F 54.0 °F 63% 29.53 in 10.0 mi Calm Calm - N/A   Scattered Clouds
7:53 PM 66.0 °F 52.0 °F 60% 29.52 in 10.0 mi NW 3.5 mph - N/A   Scattered Clouds
8:53 PM 62.1 °F 55.0 °F 78% 29.52 in 6.0 mi WNW 3.5 mph - 0.01 in Rain Light Rain
9:53 PM 60.1 °F 60.1 °F 100% 29.52 in 10.0 mi ESE 3.5 mph - 0.06 in Rain Light Rain
10:53 PM 60.1 °F 60.1 °F 100% 29.51 in 10.0 mi East 4.6 mph - 0.00 in Rain Light Rain
11:53 PM 57.9 °F 57.9 °F 100% 29.51 in 10.0 mi East 4.6 mph - 0.02 in Rain Light Rain